sat.trackr.live / text

‹ back to catalog

STARLINK-3369

NORAD 51142 · 2022-005AQ

PAYLOAD ACTIVE UNKNOWN

§ Identity

Operator
Country
US
Launch date
2022-01-19
Launch site
AFETR
Launch vehicle
Mass (kg)
RCS (m²)

Purposes: comms

External: N2YO · Heavens-Above · Gunter

§ Orbital elements

Epoch: 2026-09-20T03:44:24.888768Z

Period
94.12 min
Inclination
53.2169°
Eccentricity
0.0005975
Mean motion
15.29887326 rev/d
Perigee alt
472.1 km
Apogee alt
480.2 km
Semi-major
6,854.3 km
B*
9.6598e-4
RAAN
107.2929°
Arg perigee
105.5536°
Mean anomaly
254.6125°
Rev number
25,864

§ Raw data

STARLINK-33691 51142U 22005AQ  26263.15584362  .00028093  00000+0  96598-3 0  99962 51142  53.2169 107.2929 0005975 105.5536 254.6125 15.29887326258643

JSON: /api/v1/satellites/51142 · /tle

For live sub-satellite position, see the globe view (requires WebGL).

§ Visibility from observer

Set your observer location to see the next 7 days of passes ≥ 10°. The values pass through the URL so the page stays shareable.

No JS? Fill the form by hand. The geolocation button needs JavaScript.